Temperature
20 20 20 20 24 25 24 24 25 24 24 23 22 23 23 22 22 21 18 17 17 17 17 17 17 17 17 17 17 17 17 17 17 17 17 17 17 17 17 17 17 17 17 17 17 17 17 17 17
20 21 20 23 25 25 24 24 24 24 23 22 22 22 22 21 20 19 18 17 17 17 17 17 17 17 17 17 17 17 17 17 17 17 17 17 17 17 17 17 17 17 17 17 17 17 17 17 17
21 21 22 25 25 25 24 24 24 23 22 23 22 22 22 20 19 18 17 17 17 17 16 16 17 17 17 17 17 17 17 17 17 17 17 17 17 17 17 17 17 17 17 17 17 17 17 17 17
20 21 23 25 24 24 24 24 24 24 23 22 22 22 20 19 18 18 17 17 17 17 16 16 17 17 17 17 17 17 17 17 17 17 17 17 17 16 17 17 17 17 17 17 17 17 17 17 17
20 23 25 25 24 24 25 24 24 24 24 23 23 22 20 18 18 18 17 17 17 17 16 16 17 16 16 16 16 16 16 16 16 16 16 16 16 16 16 17 17 17 17 17 17 17 17 17 17
22 25 25 24 24 24 25 24 24 24 23 23 22 22 20 18 18 17 17 17 17 16 16 16 17 16 16 16 16 16 16 16 16 16 16 16 16 16 16 16 16 16 16 16 16 16 16 16 16
23 25 25 25 24 24 24 24 24 24 24 23 22 22 20 18 18 17 17 17 17 16 16 16 16 16 16 16 16 16 16 16 16 16 16 16 16 16 16 16 16 16 16 16 16 16 16 16 16
22 25 24 25 24 24 24 23 23 23 23 21 21 22 21 18 17 17 17 17 17 16 16 16 16 16 16 16 16 16 16 16 16 16 16 16 16 16 16 16 16 16 16 16 16 16 16 16 16
22 25 24 24 24 24 24 24 23 22 22 21 21 21 20 18 18 17 17 17 17 17 17 16 16 16 16 16 16 16 16 16 16 16 16 16 15 15 15 16 16 16 16 16 16 16 16 16 16
24 24 24 24 25 25 24 24 23 23 23 22 21 19 19 18 18 18 18 18 17 17 17 17 16 16 16 16 16 16 16 16 16 16 15 15 15 15 15 16 16 16 16 16 16 16 16 15 15
24 24 24 24 24 24 24 23 23 24 23 23 21 20 19 19 19 18 18 18 18 17 17 17 16 16 16 16 16 16 16 16 16 16 15 15 15 15 15 15 15 15 15 15 15 15 15 15 15
24 24 24 24 23 23 24 23 23 23 23 22 21 20 19 19 19 19 18 18 18 17 17 17 16 16 16 16 16 16 16 16 16 15 15 15 15 15 15 15 15 15 15 15 15 15 15 15 15
24 24 23 23 23 23 23 23 23 23 22 21 21 20 20 20 19 19 18 18 18 17 17 17 16 16 16 16 16 16 16 16 16 15 15 15 15 15 15 15 15 15 15 15 15 15 15 15 15
24 23 23 23 23 23 23 23 23 22 21 21 21 20 20 20 19 19 18 18 18 18 17 17 16 16 16 16 16 16 16 16 16 15 15 15 15 15 15 15 15 15 15 15 15 15 15 15 15
23 24 24 24 24 23 24 24 24 22 21 21 21 21 20 20 19 19 19 19 18 18 18 17 16 16 16 16 16 16 16 16 16 15 15 15 15 15 15 15 15 15 15 15 15 15 15 15 15
24 24 23 24 24 23 24 23 24 22 22 22 22 21 20 20 19 19 19 19 18 18 18 17 16 16 16 16 16 16 16 16 16 16 15 16 16 15 15 15 15 15 15 15 15 15 15 15 15
24 24 23 24 24 24 24 23 24 22 22 22 22 22 21 20 20 19 19 19 18 18 18 17 17 16 16 16 16 16 16 16 15 15 15 15 15 15 15 15 15 15 15 15 15 15 15 15 14
23 24 23 23 24 24 23 24 24 22 22 22 22 22 21 21 20 20 19 19 18 18 18 17 17 16 16 16 16 16 16 16 15 15 15 15 15 15 15 15 15 15 15 15 15 15 15 14 14
24 23 23 23 24 23 23 23 24 23 22 22 22 22 22 21 20 20 19 18 18 18 17 17 17 16 16 16 16 16 16 15 15 15 15 15 15 15 15 15 15 15 15 15 15 15 14 14 14
23 23 23 23 23 23 23 23 24 23 23 23 23 22 22 21 21 20 19 18 18 18 17 17 17 16 16 16 16 16 15 15 15 15 15 15 15 15 15 15 15 15 15 15 14 14 14 14 14
23 23 23 23 23 23 23 23 23 24 23 22 22 22 22 21 21 20 19 19 18 18 17 17 17 17 16 16 16 16 15 15 15 15 15 15 15 15 15 15 15 15 15 15 14 14 14 14 14
22 23 23 22 22 23 23 23 23 24 23 23 22 22 22 21 21 20 19 18 18 18 18 17 17 17 16 16 16 16 15 15 15 15 15 15 15 15 15 15 15 14 15 14 14 14 14 14 14
23 22 22 22 23 23 23 23 24 24 23 23 23 22 21 21 20 20 19 19 18 18 18 17 17 16 16 16 16 15 15 15 15 15 15 15 15 15 15 15 15 15 14 14 14 14 14 14 14
22 22 22 22 22 22 23 23 23 24 23 24 23 22 21 21 20 19 19 18 18 18 17 17 17 16 16 16 16 15 15 15 15 15 15 15 15 15 15 15 14 14 14 14 14 14 14 14 14
22 22 22 22 22 22 23 22 23 24 24 23 23 22 21 20 20 19 19 18 18 18 17 17 17 16 16 16 16 16 15 15 15 15 15 15 15 15 15 15 15 15 14 14 14 14 14 14 14
22 22 22 22 22 22 22 22 24 24 23 22 22 22 21 20 20 19 19 18 18 17 17 17 17 16 16 16 16 16 15 15 15 15 15 15 15 15 15 15 15 15 15 15 14 14 14 14 14
22 22 22 22 22 22 23 23 24 24 23 22 22 21 21 20 19 19 18 18 18 18 17 17 17 16 16 16 16 16 15 15 15 15 15 15 15 15 15 15 15 15 15 15 15 15 14 14 14
22 22 22 22 21 21 22 22 23 23 23 23 22 21 20 20 19 19 18 18 17 17 17 17 16 16 16 16 16 16 15 15 15 15 15 15 15 15 15 15 15 15 15 15 15 15 15 14 15
21 21 22 22 21 21 21 22 24 23 23 23 22 21 20 20 19 18 18 18 17 17 17 17 16 16 16 16 16 16 16 15 15 15 15 15 15 15 15 15 15 15 15 15 15 15 14 14 14
21 21 21 21 21 21 22 22 23 23 23 22 22 21 20 19 18 18 17 17 17 17 17 16 16 16 16 16 16 15 15 15 15 15 15 15 15 15 15 15 15 15 15 15 15 15 14 14 14
Wind_Speed
2 2 3 3 2 3 7 5 5 5 4 5 6 5 6 6 5 4 4 3 4 4 5 6 5 6 6 6 7 7 7 8 8 9 9 9 9 9 9 9 8 8 8 7 7 7 7 7 8
1 1 3 2 1 5 6 5 6 6 5 4 4 5 5 6 5 5 4 4 4 5 5 6 7 6 6 7 7 7 8 8 9 9 9 9 9 9 9 8 8 7 7 7 7 7 7 7 7
1 2 2 0 3 5 6 5 6 6 4 2 3 4 4 5 4 4 4 5 5 5 6 7 6 7 7 7 8 8 8 8 8 9 9 9 9 9 8 8 8 8 7 7 7 7 7 7 7
2 2 1 3 8 7 5 5 5 5 3 3 3 5 5 5 3 5 6 5 6 6 6 8 7 7 7 8 8 8 8 8 8 8 9 9 8 8 8 8 8 7 7 7 7 8 8 7 8
2 2 3 6 7 5 4 4 3 3 3 3 3 5 5 5 6 7 6 5 6 6 7 8 8 7 7 7 7 8 9 9 9 9 9 9 9 8 8 8 8 7 7 7 8 8 9 8 9
1 1 4 5 6 5 4 3 3 3 4 3 3 4 5 6 6 6 6 5 6 6 6 8 8 7 7 7 8 8 8 9 9 9 9 9 9 9 9 9 8 8 7 7 8 8 9 9 9
1 1 3 6 6 5 3 2 2 2 3 3 2 3 5 6 6 6 6 5 5 5 5 6 7 8 8 8 8 8 9 9 8 9 9 9 9 10 9 9 9 8 8 8 8 9 9 10 11
1 2 4 4 5 4 4 3 2 2 3 3 1 2 4 7 7 6 6 5 5 5 5 5 6 6 7 8 9 8 8 8 8 9 8 8 8 9 8 8 9 8 8 8 9 10 11 11 11
2 3 3 3 3 4 4 4 3 2 4 3 2 3 6 10 9 7 6 5 5 4 4 5 5 6 6 7 8 8 8 8 8 9 7 5 6 7 8 10 9 9 9 10 10 11 11 10 11
1 2 3 2 2 3 4 3 4 4 3 3 4 6 8 10 9 8 6 6 5 4 4 4 4 5 6 5 6 5 6 6 5 6 6 5 6 6 7 10 9 9 9 10 10 10 8 5 8
1 2 3 3 2 3 4 3 3 2 1 2 4 8 10 9 8 7 6 5 4 4 4 3 4 4 5 4 4 4 4 5 5 6 6 5 6 6 6 6 7 7 7 7 8 6 7 7 7
3 2 2 2 2 3 3 3 2 1 1 2 5 9 11 10 9 7 6 5 4 4 4 3 4 4 4 4 4 3 4 4 5 5 6 5 4 4 5 4 5 5 6 6 6 6 7 7 8
3 2 1 1 2 2 3 3 2 2 2 4 7 9 10 9 8 6 5 5 5 4 4 4 3 3 4 4 3 3 4 4 5 4 4 5 4 4 4 5 5 5 6 5 5 6 7 7 8
2 2 2 1 2 2 3 3 3 2 4 6 8 9 9 9 8 7 6 5 5 5 4 5 4 3 4 4 3 3 4 4 4 4 3 5 5 4 4 4 4 5 5 6 6 7 6 7 7
3 3 3 2 2 2 3 3 3 4 6 7 8 8 8 8 8 7 7 6 6 5 5 5 4 4 3 3 3 3 3 4 4 4 4 5 4 4 4 4 4 5 6 6 6 6 6 6 6
4 5 4 2 2 2 5 3 2 4 6 6 7 7 8 8 9 8 7 7 6 5 5 5 5 4 4 4 3 3 3 3 3 4 3 4 4 4 4 4 4 5 5 5 4 5 5 6 6
5 5 4 3 2 3 4 3 2 4 6 6 6 7 8 8 8 8 8 7 7 6 6 6 6 5 5 4 3 3 3 3 3 3 3 3 4 4 4 3 3 4 4 3 4 4 4 5 5
5 5 4 3 2 3 5 5 3 4 6 6 6 7 8 8 8 8 8 8 7 6 6 6 6 5 5 4 4 3 3 3 3 3 3 3 2 3 4 3 3 3 3 3 3 5 4 4 4
4 5 4 3 2 4 5 6 5 4 6 6 6 7 8 8 7 7 8 8 8 8 7 7 7 7 6 5 4 3 3 2 3 2 3 3 3 3 4 3 3 3 3 4 4 4 5 4 3
7 7 5 3 2 4 5 6 5 5 6 7 7 7 8 8 7 7 8 9 10 9 9 9 8 8 7 4 4 3 3 2 2 2 3 3 3 3 3 4 3 3 3 4 4 4 3 3 1
9 8 7 5 3 5 5 5 5 4 5 5 6 7 7 8 8 8 9 10 10 10 10 8 9 9 8 6 4 4 3 3 3 3 2 2 2 3 3 4 3 3 3 4 3 3 2 1 1
8 6 7 7 7 4 5 5 4 4 4 4 5 6 7 7 7 8 9 10 11 11 9 9 9 9 8 7 5 5 4 3 3 3 3 3 3 3 3 3 3 3 3 3 3 2 1 1 1
5 4 6 7 8 7 6 6 3 3 3 4 4 4 5 6 7 8 9 10 10 10 9 9 9 9 8 7 6 5 4 3 3 3 4 4 4 3 4 4 4 3 3 3 2 2 1 1 0
5 5 5 6 7 8 6 7 4 3 3 3 3 3 3 5 6 7 8 8 9 9 10 10 10 9 9 8 7 6 5 5 5 4 4 3 3 3 4 4 4 4 3 3 3 2 2 1 1
7 7 5 6 6 5 4 6 4 1 2 3 3 2 2 4 5 6 8 9 9 10 11 11 11 10 9 9 8 7 6 6 5 5 4 4 4 3 4 4 3 3 3 3 3 2 2 2 1
9 10 6 5 5 4 4 6 2 1 1 2 2 1 1 3 4 6 8 9 10 11 11 12 12 11 10 9 8 7 6 5 4 4 4 4 3 3 4 4 4 3 3 3 3 2 2 1 1
8 9 7 6 5 6 5 4 3 3 2 1 1 1 1 2 4 5 7 8 9 10 11 12 12 11 10 9 8 7 6 6 6 5 5 3 3 3 4 4 4 4 3 3 3 2 2 1 1
6 7 6 7 6 6 6 7 4 3 3 1 0 0 1 2 3 5 6 7 8 9 10 11 11 11 10 9 8 6 6 6 6 5 5 5 4 4 4 5 5 5 4 4 3 2 1 2 2
8 9 7 7 6 6 5 3 2 3 3 2 1 1 1 2 3 4 5 6 7 8 9 10 10 10 9 8 8 7 6 7 6 5 5 5 5 5 5 4 5 5 5 4 4 3 2 2 3
9 9 10 8 7 7 7 4 3 1 2 2 1 0 1 2 3 4 5 6 7 8 9 10 10 10 9 8 8 8 7 7 7 6 5 6 5 5 5 5 5 5 4 4 4 4 3 2 2
Wind_Direction
217 233 257 250 214 98 77 71 67 67 62 57 52 50 57 43 28 60 86 90 93 97 94 104 91 92 99 105 103 101 101 102 104 104 101 97 95 93 89 85 84 86 88 87 85 84 84 85 85
257 262 251 252 159 105 86 80 75 63 81 87 66 57 65 66 59 83 97 95 96 91 88 85 90 94 95 94 97 101 101 100 99 101 100 95 93 91 88 86 83 82 85 85 81 79 81 86 89
210 261 282 174 82 80 96 91 88 92 89 64 74 56 54 67 81 88 94 111 104 90 87 87 88 91 95 95 97 97 96 98 97 97 98 94 90 88 87 85 81 80 83 84 79 76 79 85 89
241 229 220 102 93 79 92 106 111 115 97 65 89 87 79 66 73 98 112 112 103 92 86 87 84 88 90 93 97 97 99 99 97 96 97 96 92 87 85 83 81 81 82 83 79 77 76 79 85
248 250 134 111 96 94 96 106 117 92 81 79 91 95 95 87 95 106 110 104 98 90 87 89 83 90 95 95 92 93 95 96 96 94 96 93 90 86 86 84 82 82 81 84 85 82 79 80 86
230 214 142 121 110 106 110 120 123 87 87 96 99 103 98 113 113 109 105 99 93 93 91 97 99 92 89 92 96 97 97 95 94 92 94 91 89 84 82 83 83 80 83 86 87 86 82 85 89
265 147 126 127 127 122 117 126 114 93 89 82 82 101 119 127 122 120 110 103 97 95 95 94 105 109 107 97 96 100 100 95 94 94 94 91 89 85 82 85 83 84 85 88 91 91 88 88 89
306 158 142 141 140 121 126 134 106 93 91 97 102 92 123 140 137 130 121 117 108 103 102 96 96 99 110 112 103 99 99 99 97 96 94 98 105 101 99 99 86 84 86 88 90 94 91 90 88
252 189 153 150 150 128 144 145 122 112 119 116 94 80 111 134 144 141 136 125 118 111 105 103 101 100 102 103 113 116 113 110 121 114 115 130 110 103 107 83 85 85 83 84 87 92 92 96 93
227 160 125 123 143 133 149 149 146 157 141 134 130 123 131 146 154 151 146 137 134 127 112 108 110 109 104 102 112 117 115 114 108 103 107 102 94 90 93 101 93 87 88 92 88 94 110 107 97
141 119 120 127 145 158 159 156 167 182 131 150 163 156 154 158 160 157 151 142 134 131 123 122 121 114 106 103 101 104 102 106 103 99 104 100 100 102 99 101 111 105 110 99 102 110 87 83 78
133 111 128 128 147 179 171 162 161 200 85 135 159 157 161 168 167 163 156 150 151 142 127 127 132 125 111 106 99 102 103 100 94 97 95 99 91 86 89 89 90 97 92 87 89 87 86 84 86
152 132 116 150 179 185 167 175 173 180 160 150 154 162 171 173 170 169 163 159 160 153 146 139 139 128 119 109 114 112 103 94 98 93 96 100 98 93 96 94 91 85 90 96 92 91 85 83 79
150 162 163 160 182 185 181 183 193 187 167 162 166 172 178 177 178 176 178 176 172 170 159 154 158 148 140 133 132 111 110 116 108 101 95 99 100 102 105 104 97 93 89 86 89 93 93 85 78
183 188 176 183 204 192 200 204 204 181 177 177 180 179 181 184 187 193 188 186 183 175 167 163 165 158 148 129 120 114 112 113 108 108 110 110 105 106 108 98 101 104 102 105 98 97 96 94 89
198 209 204 175 206 201 229 230 175 171 190 197 198 189 190 194 200 201 199 195 189 181 174 164 170 170 155 144 139 125 121 114 107 111 109 111 113 102 95 95 105 107 109 110 106 104 105 98 89
207 214 214 193 192 214 233 255 202 189 206 214 211 203 200 199 204 206 205 204 196 188 184 173 171 168 159 151 144 133 122 113 115 121 116 121 118 120 112 102 111 117 117 117 117 108 102 97 92
204 214 216 220 184 223 239 258 244 210 221 228 222 216 209 212 207 203 204 202 194 190 188 181 172 172 161 163 161 149 130 127 121 120 132 123 129 128 126 135 136 127 128 125 124 111 104 99 98
217 222 231 236 237 251 257 267 265 238 228 232 229 222 216 217 209 200 198 196 192 189 190 187 183 178 173 173 176 165 153 145 134 125 121 138 147 141 141 149 139 146 141 136 132 125 124 119 115
218 230 241 233 234 261 271 271 261 241 234 237 236 229 223 219 208 198 198 196 194 188 193 192 187 182 179 181 173 163 154 155 139 143 140 155 155 156 150 155 162 158 143 140 133 137 135 126 156
224 236 242 248 255 239 269 258 236 228 231 237 242 240 232 225 220 205 197 196 193 190 193 192 186 181 178 174 166 159 151 160 161 161 154 157 162 165 164 163 167 160 159 150 157 161 154 157 163
226 233 240 240 247 246 251 269 236 227 229 237 242 241 237 229 223 211 201 194 195 191 189 188 181 179 174 173 176 176 171 167 165 168 162 161 164 159 164 162 163 163 153 150 164 164 165 179 175
230 224 232 238 246 253 241 260 245 206 233 247 240 238 238 227 218 210 203 197 192 185 183 184 179 176 173 175 175 182 172 168 163 170 167 166 158 155 155 156 159 163 152 147 146 149 171 175 300
203 202 208 225 238 242 241 250 256 220 256 269 254 248 233 215 206 204 195 189 185 180 180 179 178 178 175 177 180 184 176 175 170 170 163 165 160 154 152 155 159 162 158 154 155 150 148 120 76
209 218 220 215 218 234 219 241 250 231 252 273 287 282 240 205 193 189 182 182 180 180 181 180 179 181 181 182 184 185 188 185 182 171 164 168 165 155 156 161 168 163 159 159 159 160 150 139 138
213 221 231 239 236 231 213 236 231 204 249 275 296 307 202 181 183 184 184 182 180 179 181 183 183 184 183 185 184 186 186 188 181 175 168 171 164 158 156 159 169 163 165 166 167 178 156 150 134
210 217 240 255 258 247 224 230 227 211 228 257 340 29 151 176 181 185 183 183 182 180 182 185 183 184 183 185 186 189 187 185 182 185 182 177 174 161 161 166 167 166 170 172 163 169 150 138 111
227 208 215 228 238 240 236 235 234 204 226 233 294 193 184 181 181 182 181 182 182 181 180 183 184 185 185 186 186 188 189 183 182 185 186 185 176 170 171 174 173 161 164 166 158 154 136 141 113
199 208 218 221 235 244 245 226 211 241 244 241 236 213 192 184 186 182 178 175 174 174 176 179 181 180 181 186 184 186 187 181 176 175 178 182 174 174 176 176 171 167 165 161 153 154 150 157 141
225 219 219 226 223 236 251 243 116 238 247 233 255 239 161 162 167 169 167 165 167 173 178 180 180 179 182 184 185 190 182 182 179 176 180 185 179 176 179 174 173 169 164 158 152 153 157 151 143
Height
1520 1519 1519 1520 1518 1517 1523 1523 1519 1521 1522 1525 1525 1524 1525 1526 1529 1536 1537 1534 1535 1535 1535 1534 1533 1534 1534 1534 1534 1534 1534 1535 1535 1536 1536 1536 1537 1537 1537 1537 1537 1537 1537 1537 1538 1537 1537 1537 1537
1520 1520 1521 1521 1516 1522 1526 1522 1522 1523 1526 1527 1527 1527 1527 1530 1533 1535 1535 1535 1536 1536 1536 1535 1534 1534 1535 1535 1535 1535 1535 1536 1536 1537 1537 1537 1537 1538 1538 1538 1538 1538 1538 1538 1538 1538 1538 1538 1538
1520 1520 1523 1518 1518 1522 1526 1523 1524 1526 1528 1528 1528 1529 1530 1533 1535 1536 1536 1536 1537 1537 1537 1536 1535 1535 1535 1535 1536 1536 1536 1536 1537 1537 1537 1538 1538 1538 1539 1539 1539 1539 1539 1539 1539 1539 1539 1539 1539
1522 1523 1522 1518 1523 1523 1522 1524 1525 1526 1528 1529 1529 1531 1533 1536 1536 1537 1537 1537 1538 1538 1538 1537 1536 1536 1536 1536 1537 1537 1537 1537 1537 1538 1538 1538 1539 1539 1539 1539 1539 1539 1539 1539 1540 1540 1540 1540 1539
1523 1522 1519 1522 1524 1523 1523 1525 1526 1526 1528 1529 1530 1531 1535 1537 1537 1538 1538 1539 1539 1539 1539 1538 1537 1537 1537 1537 1537 1538 1538 1538 1538 1538 1539 1539 1539 1540 1540 1540 1540 1540 1540 1540 1540 1540 1541 1540 1540
1524 1520 1521 1525 1525 1524 1525 1527 1527 1527 1529 1531 1531 1532 1536 1538 1538 1538 1539 1539 1539 1539 1539 1539 1538 1538 1538 1538 1538 1539 1539 1539 1539 1540 1540 1540 1540 1540 1541 1541 1541 1541 1541 1541 1541 1541 1541 1541 1541
1524 1520 1521 1523 1526 1526 1526 1528 1528 1528 1529 1531 1532 1533 1536 1538 1538 1539 1539 1539 1540 1540 1540 1540 1540 1540 1539 1539 1539 1540 1540 1540 1540 1541 1541 1541 1541 1541 1542 1542 1542 1542 1542 1542 1542 1543 1542 1542 1542
1524 1522 1523 1523 1526 1527 1528 1529 1530 1530 1531 1534 1534 1533 1536 1539 1539 1540 1540 1541 1541 1541 1541 1541 1541 1542 1542 1541 1541 1541 1541 1541 1541 1542 1542 1543 1543 1543 1543 1543 1543 1543 1543 1544 1544 1544 1544 1544 1544
1524 1523 1524 1524 1526 1526 1528 1528 1531 1532 1533 1534 1535 1535 1537 1538 1539 1540 1541 1542 1542 1542 1543 1542 1543 1543 1543 1543 1542 1542 1542 1543 1543 1544 1544 1544 1546 1546 1545 1545 1545 1545 1545 1545 1545 1545 1545 1545 1545
1524 1522 1524 1524 1524 1525 1527 1528 1530 1531 1532 1533 1535 1536 1537 1538 1539 1540 1541 1542 1543 1543 1544 1544 1544 1544 1544 1544 1544 1545 1545 1544 1545 1546 1546 1546 1547 1547 1547 1546 1546 1546 1547 1547 1547 1547 1547 1548 1548
1523 1523 1524 1525 1526 1527 1527 1529 1530 1530 1530 1532 1534 1536 1537 1539 1540 1541 1542 1542 1543 1544 1544 1545 1545 1545 1545 1545 1546 1546 1546 1546 1546 1547 1547 1547 1548 1548 1548 1549 1549 1549 1549 1549 1549 1549 1550 1550 1549
1524 1525 1525 1526 1527 1527 1527 1529 1530 1530 1532 1532 1534 1535 1537 1538 1540 1541 1542 1543 1544 1544 1545 1545 1545 1546 1546 1546 1547 1547 1547 1547 1548 1548 1548 1549 1549 1549 1550 1550 1550 1551 1551 1550 1551 1551 1551 1551 1551
1524 1525 1527 1527 1528 1528 1528 1529 1530 1531 1532 1533 1534 1536 1537 1538 1540 1541 1542 1543 1544 1545 1545 1545 1546 1547 1547 1547 1547 1548 1548 1548 1549 1548 1549 1550 1551 1551 1551 1551 1551 1552 1552 1552 1552 1552 1552 1552 1552
1525 1526 1526 1527 1527 1528 1528 1529 1530 1530 1532 1533 1534 1535 1537 1538 1540 1541 1542 1543 1544 1545 1546 1546 1546 1547 1548 1548 1548 1549 1549 1549 1550 1550 1550 1551 1552 1552 1552 1553 1553 1553 1553 1553 1553 1553 1553 1553 1553
1526 1525 1525 1526 1526 1527 1527 1527 1528 1530 1532 1533 1534 1535 1536 1538 1539 1540 1542 1543 1544 1545 1546 1546 1547 1547 1548 1549 1549 1549 1550 1550 1551 1551 1552 1552 1553 1553 1553 1554 1554 1554 1554 1555 1555 1555 1555 1554 1555
1523 1523 1526 1525 1525 1526 1528 1528 1527 1529 1531 1531 1532 1533 1535 1537 1538 1539 1541 1542 1543 1544 1545 1546 1546 1547 1548 1549 1549 1550 1550 1551 1551 1552 1552 1553 1554 1554 1554 1554 1555 1555 1556 1556 1556 1556 1556 1556 1556
1522 1524 1525 1525 1524 1524 1525 1525 1525 1528 1529 1529 1530 1531 1533 1535 1537 1538 1539 1541 1542 1544 1545 1546 1546 1547 1548 1549 1549 1550 1551 1551 1551 1552 1553 1554 1554 1555 1555 1555 1556 1556 1556 1557 1557 1557 1557 1557 1557
1524 1523 1524 1524 1522 1523 1523 1523 1523 1526 1527 1527 1528 1530 1531 1533 1534 1536 1538 1539 1541 1542 1544 1545 1546 1547 1548 1549 1550 1550 1551 1551 1552 1552 1553 1554 1555 1555 1556 1556 1557 1557 1557 1558 1558 1558 1558 1558 1559
1520 1522 1524 1523 1522 1523 1522 1522 1521 1523 1525 1525 1526 1527 1528 1530 1532 1534 1535 1537 1539 1541 1542 1544 1545 1546 1547 1548 1549 1550 1551 1552 1552 1553 1553 1554 1555 1556 1556 1557 1557 1558 1558 1559 1559 1559 1559 1560 1560
1521 1523 1523 1522 1522 1523 1521 1521 1519 1520 1522 1523 1523 1524 1526 1528 1530 1531 1533 1535 1537 1539 1541 1543 1544 1545 1546 1548 1549 1550 1551 1552 1552 1552 1553 1554 1555 1556 1557 1557 1558 1558 1558 1559 1560 1560 1560 1560 1560
1521 1522 1522 1523 1522 1521 1522 1520 1517 1517 1519 1520 1521 1522 1523 1525 1526 1528 1530 1532 1534 1536 1539 1541 1543 1544 1545 1547 1548 1549 1550 1551 1552 1553 1553 1554 1555 1555 1556 1557 1558 1558 1559 1560 1560 1560 1560 1561 1561
1521 1519 1521 1523 1524 1522 1522 1524 1515 1513 1515 1516 1518 1519 1520 1521 1523 1525 1527 1529 1531 1534 1536 1539 1541 1543 1544 1546 1547 1549 1549 1551 1551 1552 1553 1553 1554 1555 1556 1557 1558 1558 1559 1559 1560 1560 1561 1561 1561
1518 1519 1520 1521 1521 1522 1519 1522 1513 1510 1513 1512 1514 1515 1517 1518 1520 1522 1524 1526 1528 1531 1534 1536 1539 1541 1542 1544 1546 1547 1549 1550 1551 1552 1552 1553 1554 1555 1555 1556 1557 1558 1559 1559 1560 1560 1561 1561 1561
1519 1520 1520 1520 1520 1526 1519 1521 1516 1508 1510 1509 1511 1513 1514 1516 1517 1519 1521 1523 1526 1528 1531 1533 1536 1539 1541 1543 1545 1546 1548 1549 1550 1551 1552 1553 1554 1554 1555 1556 1557 1558 1559 1559 1560 1560 1561 1561 1561
1517 1521 1526 1526 1526 1522 1515 1518 1512 1505 1507 1508 1509 1510 1512 1513 1515 1517 1519 1520 1523 1525 1528 1531 1534 1536 1539 1541 1543 1545 1547 1548 1550 1551 1552 1553 1554 1554 1555 1556 1557 1558 1559 1560 1560 1560 1561 1561 1561
1514 1515 1523 1527 1524 1518 1517 1515 1506 1504 1507 1508 1509 1510 1510 1511 1513 1515 1516 1518 1520 1523 1526 1529 1532 1534 1537 1540 1542 1544 1546 1547 1549 1550 1551 1553 1554 1554 1555 1556 1557 1558 1559 1560 1560 1561 1561 1561 1562
1512 1512 1512 1516 1516 1520 1513 1507 1503 1503 1505 1506 1507 1508 1509 1510 1511 1513 1515 1517 1519 1521 1524 1527 1530 1533 1535 1538 1541 1543 1545 1546 1548 1549 1551 1552 1553 1554 1555 1556 1557 1558 1559 1560 1560 1560 1561 1561 1561
1510 1510 1513 1517 1524 1524 1516 1511 1506 1502 1502 1503 1505 1506 1508 1509 1510 1512 1513 1515 1517 1520 1522 1525 1528 1531 1534 1537 1539 1542 1543 1545 1546 1548 1550 1551 1552 1553 1555 1556 1557 1558 1559 1559 1560 1560 1561 1561 1561
1511 1512 1510 1511 1513 1519 1519 1511 1497 1499 1501 1502 1504 1505 1507 1508 1509 1510 1512 1513 1516 1518 1521 1524 1527 1530 1532 1535 1538 1540 1542 1544 1545 1547 1548 1550 1551 1553 1554 1555 1557 1558 1559 1559 1559 1560 1560 1561 1561
1506 1506 1508 1514 1514 1512 1513 1509 1497 1499 1500 1502 1504 1505 1506 1507 1508 1509 1510 1512 1514 1517 1520 1522 1525 1528 1531 1534 1536 1539 1541 1542 1544 1546 1547 1549 1550 1552 1554 1555 1556 1557 1558 1559 1559 1560 1560 1561 1561